Year,Month,Day,Hour,Minute,Value (Times are PST for temperature in C)
2007,07,10,00,00,24.30
2007,07,10,00,01,24.30
2007,07,10,00,02,24.30
2007,07,10,00,03,24.30
2007,07,10,00,04,24.30
2007,07,10,00,05,24.30
2007,07,10,00,06,24.30
2007,07,10,00,07,24.30
2007,07,10,00,08,24.20
2007,07,10,00,09,24.20
2007,07,10,00,10,24.20
2007,07,10,00,11,24.20
2007,07,10,00,12,24.20
2007,07,10,00,13,24.20
2007,07,10,00,14,24.20
2007,07,10,00,15,24.20
2007,07,10,00,16,24.10
2007,07,10,00,17,24.10
2007,07,10,00,18,24.10
2007,07,10,00,19,24.00
2007,07,10,00,20,24.00
2007,07,10,00,21,23.90
2007,07,10,00,22,23.90
2007,07,10,00,23,23.90
2007,07,10,00,24,23.90
2007,07,10,00,25,23.90
2007,07,10,00,26,23.90
2007,07,10,00,27,24.00
2007,07,10,00,28,24.00
2007,07,10,00,29,24.00
2007,07,10,00,30,24.00
2007,07,10,00,31,24.00
2007,07,10,00,32,23.90
2007,07,10,00,33,23.90
2007,07,10,00,34,23.90
2007,07,10,00,35,23.90
2007,07,10,00,36,23.90
2007,07,10,00,37,23.90
2007,07,10,00,38,24.00
2007,07,10,00,39,23.90
2007,07,10,00,40,23.90
2007,07,10,00,41,23.80
2007,07,10,00,42,23.60
2007,07,10,00,43,23.40
2007,07,10,00,44,23.30
2007,07,10,00,45,23.10
2007,07,10,00,46,23.00
2007,07,10,00,47,22.90
2007,07,10,00,48,22.80
2007,07,10,00,49,22.80
2007,07,10,00,50,22.80
2007,07,10,00,51,22.70
2007,07,10,00,52,22.70
2007,07,10,00,53,22.70
2007,07,10,00,54,22.70
2007,07,10,00,55,22.70
2007,07,10,00,56,22.70
2007,07,10,00,57,22.70
2007,07,10,00,58,22.70
2007,07,10,00,59,22.70
2007,07,10,01,00,22.70
2007,07,10,01,01,22.70
2007,07,10,01,02,22.70
2007,07,10,01,03,22.70
2007,07,10,01,04,22.70
2007,07,10,01,05,22.60
2007,07,10,01,06,22.60
2007,07,10,01,07,22.60
2007,07,10,01,08,22.60
2007,07,10,01,09,22.60
2007,07,10,01,10,22.60
2007,07,10,01,11,22.60
2007,07,10,01,12,22.60
2007,07,10,01,13,22.60
2007,07,10,01,14,22.60
2007,07,10,01,15,22.60
2007,07,10,01,16,22.50
2007,07,10,01,17,22.50
2007,07,10,01,18,22.40
2007,07,10,01,19,22.40
2007,07,10,01,20,22.40
2007,07,10,01,21,22.30
2007,07,10,01,22,22.30
2007,07,10,01,23,22.30
2007,07,10,01,24,22.30
2007,07,10,01,25,22.20
2007,07,10,01,26,22.30
2007,07,10,01,27,22.20
2007,07,10,01,28,22.30
2007,07,10,01,29,22.20
2007,07,10,01,30,22.20
2007,07,10,01,31,22.20
2007,07,10,01,32,22.20
2007,07,10,01,33,22.10
2007,07,10,01,34,22.10
2007,07,10,01,35,22.10
2007,07,10,01,36,22.00
2007,07,10,01,37,22.00
2007,07,10,01,38,22.00
2007,07,10,01,39,21.90
2007,07,10,01,40,21.90
2007,07,10,01,41,21.90
2007,07,10,01,42,21.80
2007,07,10,01,43,21.80
2007,07,10,01,44,21.80
2007,07,10,01,45,21.80
2007,07,10,01,46,21.80
2007,07,10,01,47,21.70
2007,07,10,01,48,21.70
2007,07,10,01,49,21.70
2007,07,10,01,50,21.60
2007,07,10,01,51,21.60
2007,07,10,01,52,21.50
2007,07,10,01,53,21.40
2007,07,10,01,54,21.40
2007,07,10,01,55,21.40
2007,07,10,01,56,21.30
2007,07,10,01,57,21.30
2007,07,10,01,58,21.30
2007,07,10,01,59,21.30
2007,07,10,02,00,21.30
2007,07,10,02,01,21.30
2007,07,10,02,02,21.20
2007,07,10,02,03,21.20
2007,07,10,02,04,21.20
2007,07,10,02,05,21.20
2007,07,10,02,06,21.20
2007,07,10,02,07,21.20
2007,07,10,02,08,21.20
2007,07,10,02,09,21.20
2007,07,10,02,10,21.10
2007,07,10,02,11,21.10
2007,07,10,02,12,21.10
2007,07,10,02,13,21.10
2007,07,10,02,14,21.10
2007,07,10,02,15,21.10
2007,07,10,02,16,21.10
2007,07,10,02,17,21.00
2007,07,10,02,18,21.00
2007,07,10,02,19,21.00
2007,07,10,02,20,21.00
2007,07,10,02,21,21.00
2007,07,10,02,22,21.00
2007,07,10,02,23,21.00
2007,07,10,02,24,21.00
2007,07,10,02,25,21.00
2007,07,10,02,26,21.00
2007,07,10,02,27,21.10
2007,07,10,02,28,21.10
2007,07,10,02,29,21.10
2007,07,10,02,30,21.10
2007,07,10,02,31,21.00
2007,07,10,02,32,21.00
2007,07,10,02,33,21.00
2007,07,10,02,34,20.90
2007,07,10,02,35,20.90
2007,07,10,02,36,20.90
2007,07,10,02,37,20.80
2007,07,10,02,38,20.80
2007,07,10,02,39,20.90
2007,07,10,02,40,20.90
2007,07,10,02,41,20.90
2007,07,10,02,42,20.90
2007,07,10,02,43,20.80
2007,07,10,02,44,20.80
2007,07,10,02,45,20.80
2007,07,10,02,46,20.80
2007,07,10,02,47,20.80
2007,07,10,02,48,20.70
2007,07,10,02,49,20.70
2007,07,10,02,50,20.70
2007,07,10,02,51,20.70
2007,07,10,02,52,20.70
2007,07,10,02,53,20.70
2007,07,10,02,54,20.60
2007,07,10,02,55,20.60
2007,07,10,02,56,20.50
2007,07,10,02,57,20.40
2007,07,10,02,58,20.40
2007,07,10,02,59,20.30
2007,07,10,03,00,20.30
2007,07,10,03,01,20.30
2007,07,10,03,02,20.30
2007,07,10,03,03,20.30
2007,07,10,03,04,20.40
2007,07,10,03,05,20.40
2007,07,10,03,06,20.50
2007,07,10,03,07,20.50
2007,07,10,03,08,20.60
2007,07,10,03,09,20.70
2007,07,10,03,10,20.70
2007,07,10,03,11,20.70
2007,07,10,03,12,20.70
2007,07,10,03,13,20.70
2007,07,10,03,14,20.60
2007,07,10,03,15,20.60
2007,07,10,03,16,20.50
2007,07,10,03,17,20.40
2007,07,10,03,18,20.40
2007,07,10,03,19,20.40
2007,07,10,03,20,20.40
2007,07,10,03,21,20.40
2007,07,10,03,22,20.40
2007,07,10,03,23,20.40
2007,07,10,03,24,20.40
2007,07,10,03,25,20.40
2007,07,10,03,26,20.40
2007,07,10,03,27,20.40
2007,07,10,03,28,20.40
2007,07,10,03,29,20.40
2007,07,10,03,30,20.30
2007,07,10,03,31,20.30
2007,07,10,03,32,20.30
2007,07,10,03,33,20.40
2007,07,10,03,34,20.40
2007,07,10,03,35,20.40
2007,07,10,03,36,20.40
2007,07,10,03,37,20.40
2007,07,10,03,38,20.40
2007,07,10,03,39,20.40
2007,07,10,03,40,20.40
2007,07,10,03,41,20.40
2007,07,10,03,42,20.50
2007,07,10,03,43,20.50
2007,07,10,03,44,20.50
2007,07,10,03,45,20.60
2007,07,10,03,46,20.60
2007,07,10,03,47,20.60
2007,07,10,03,48,20.70
2007,07,10,03,49,20.70
2007,07,10,03,50,20.70
2007,07,10,03,51,20.80
2007,07,10,03,52,20.80
2007,07,10,03,53,20.80
2007,07,10,03,54,20.80
2007,07,10,03,55,20.80
2007,07,10,03,56,20.80
2007,07,10,03,57,20.70
2007,07,10,03,58,20.60
2007,07,10,03,59,20.60
2007,07,10,04,00,20.50
2007,07,10,04,01,20.50
2007,07,10,04,02,20.40
2007,07,10,04,03,20.40
2007,07,10,04,04,20.30
2007,07,10,04,05,20.30
2007,07,10,04,06,20.20
2007,07,10,04,07,20.20
2007,07,10,04,08,20.20
2007,07,10,04,09,20.20
2007,07,10,04,10,20.20
2007,07,10,04,11,20.10
2007,07,10,04,12,20.10
2007,07,10,04,13,20.10
2007,07,10,04,14,20.10
2007,07,10,04,15,20.20
2007,07,10,04,16,20.20
2007,07,10,04,17,20.20
2007,07,10,04,18,20.20
2007,07,10,04,19,20.20
2007,07,10,04,20,20.20
2007,07,10,04,21,20.30
2007,07,10,04,22,20.30
2007,07,10,04,23,20.30
2007,07,10,04,24,20.30
2007,07,10,04,25,20.30
2007,07,10,04,26,20.30
2007,07,10,04,27,20.30
2007,07,10,04,28,20.30
2007,07,10,04,29,20.30
2007,07,10,04,30,20.40
2007,07,10,04,31,20.50
2007,07,10,04,32,20.50
2007,07,10,04,33,20.60
2007,07,10,04,34,20.60
2007,07,10,04,35,20.60
2007,07,10,04,36,20.60
2007,07,10,04,37,20.60
2007,07,10,04,38,20.60
2007,07,10,04,39,20.60
2007,07,10,04,40,20.50
2007,07,10,04,41,20.50
2007,07,10,04,42,20.40
2007,07,10,04,43,20.40
2007,07,10,04,44,20.30
2007,07,10,04,45,20.30
2007,07,10,04,46,20.20
2007,07,10,04,47,20.20
2007,07,10,04,48,20.20
2007,07,10,04,49,20.10
2007,07,10,04,50,20.10
2007,07,10,04,51,20.10
2007,07,10,04,52,20.10
2007,07,10,04,53,20.10
2007,07,10,04,54,20.20
2007,07,10,04,55,20.20
2007,07,10,04,56,20.20
2007,07,10,04,57,20.20
2007,07,10,04,58,20.20
2007,07,10,04,59,20.30
2007,07,10,05,00,20.20
2007,07,10,05,01,20.20
2007,07,10,05,02,20.20
2007,07,10,05,03,20.20
2007,07,10,05,04,20.10
2007,07,10,05,05,20.10
2007,07,10,05,06,20.10
2007,07,10,05,07,20.10
2007,07,10,05,08,20.10
2007,07,10,05,09,20.10
2007,07,10,05,10,20.00
2007,07,10,05,11,20.00
2007,07,10,05,12,20.00
2007,07,10,05,13,19.90
2007,07,10,05,14,19.90
2007,07,10,05,15,19.90
2007,07,10,05,16,19.90
2007,07,10,05,17,19.90
2007,07,10,05,18,19.90
2007,07,10,05,19,19.80
2007,07,10,05,20,19.80
2007,07,10,05,21,19.80
2007,07,10,05,22,19.80
2007,07,10,05,23,19.80
2007,07,10,05,24,19.80
2007,07,10,05,25,19.70
2007,07,10,05,26,19.70
2007,07,10,05,27,19.70
2007,07,10,05,28,19.70
2007,07,10,05,29,19.70
2007,07,10,05,30,19.70
2007,07,10,05,31,19.60
2007,07,10,05,32,19.60
2007,07,10,05,33,19.60
2007,07,10,05,34,19.70
2007,07,10,05,35,19.70
2007,07,10,05,36,19.80
2007,07,10,05,37,19.80
2007,07,10,05,38,19.90
2007,07,10,05,39,19.90
2007,07,10,05,40,20.00
2007,07,10,05,41,20.00
2007,07,10,05,42,20.00
2007,07,10,05,43,20.00
2007,07,10,05,44,20.00
2007,07,10,05,45,20.00
2007,07,10,05,46,20.10
2007,07,10,05,47,20.10
2007,07,10,05,48,20.10
2007,07,10,05,49,20.10
2007,07,10,05,50,20.10
2007,07,10,05,51,20.20
2007,07,10,05,52,20.20
2007,07,10,05,53,20.20
2007,07,10,05,54,20.20
2007,07,10,05,55,20.20
2007,07,10,05,56,20.10
2007,07,10,05,57,20.10
2007,07,10,05,58,20.10
2007,07,10,05,59,20.10
2007,07,10,06,00,20.10
2007,07,10,06,01,20.20
2007,07,10,06,02,20.20
2007,07,10,06,03,20.20
2007,07,10,06,04,20.30
2007,07,10,06,05,20.30
2007,07,10,06,06,20.40
2007,07,10,06,07,20.40
2007,07,10,06,08,20.50
2007,07,10,06,09,20.50
2007,07,10,06,10,20.60
2007,07,10,06,11,20.60
2007,07,10,06,12,20.60
2007,07,10,06,13,20.60
2007,07,10,06,14,20.60
2007,07,10,06,15,20.60
2007,07,10,06,16,20.60
2007,07,10,06,17,20.60
2007,07,10,06,18,20.60
2007,07,10,06,19,20.60
2007,07,10,06,20,20.60
2007,07,10,06,21,20.60
2007,07,10,06,22,20.60
2007,07,10,06,23,20.50
2007,07,10,06,24,20.50
2007,07,10,06,25,20.50
2007,07,10,06,26,20.50
2007,07,10,06,27,20.60
2007,07,10,06,28,20.60
2007,07,10,06,29,20.60
2007,07,10,06,30,20.60
2007,07,10,06,31,20.60
2007,07,10,06,32,20.60
2007,07,10,06,33,20.60
2007,07,10,06,34,20.60
2007,07,10,06,35,20.60
2007,07,10,06,36,20.60
2007,07,10,06,37,20.70
2007,07,10,06,38,20.70
2007,07,10,06,39,20.70
2007,07,10,06,40,20.70
2007,07,10,06,41,20.70
2007,07,10,06,42,20.70
2007,07,10,06,43,20.70
2007,07,10,06,44,20.70
2007,07,10,06,45,20.70
2007,07,10,06,46,20.80
2007,07,10,06,47,20.80
2007,07,10,06,48,20.80
2007,07,10,06,49,20.80
2007,07,10,06,50,20.90
2007,07,10,06,51,20.90
2007,07,10,06,52,21.00
2007,07,10,06,53,21.00
2007,07,10,06,54,21.10
2007,07,10,06,55,21.10
2007,07,10,06,56,21.10
2007,07,10,06,57,21.20
2007,07,10,06,58,21.20
2007,07,10,06,59,21.30
2007,07,10,07,00,21.40
2007,07,10,07,01,21.50
2007,07,10,07,02,21.60
2007,07,10,07,03,21.80
2007,07,10,07,04,21.80
2007,07,10,07,05,21.80
2007,07,10,07,06,21.80
2007,07,10,07,07,21.80
2007,07,10,07,08,21.80
2007,07,10,07,09,21.80
2007,07,10,07,10,21.80
2007,07,10,07,11,21.80
2007,07,10,07,12,21.80
2007,07,10,07,13,21.90
2007,07,10,07,14,22.00
2007,07,10,07,15,22.10
2007,07,10,07,16,22.20
2007,07,10,07,17,22.30
2007,07,10,07,18,22.30
2007,07,10,07,19,22.40
2007,07,10,07,20,22.40
2007,07,10,07,21,22.50
2007,07,10,07,22,22.50
2007,07,10,07,23,22.60
2007,07,10,07,24,22.70
2007,07,10,07,25,22.70
2007,07,10,07,26,22.80
2007,07,10,07,27,22.90
2007,07,10,07,28,23.00
2007,07,10,07,29,23.10
2007,07,10,07,30,23.10
2007,07,10,07,31,23.20
2007,07,10,07,32,23.20
2007,07,10,07,33,23.20
2007,07,10,07,34,23.20
2007,07,10,07,35,23.30
2007,07,10,07,36,23.30
2007,07,10,07,37,23.20
2007,07,10,07,38,23.20
2007,07,10,07,39,23.20
2007,07,10,07,40,23.20
2007,07,10,07,41,23.20
2007,07,10,07,42,23.20
2007,07,10,07,43,23.30
2007,07,10,07,44,23.30
2007,07,10,07,45,23.30
2007,07,10,07,46,23.30
2007,07,10,07,47,23.30
2007,07,10,07,48,23.30
2007,07,10,07,49,23.30
2007,07,10,07,50,23.30
2007,07,10,07,51,23.30
2007,07,10,07,52,23.30
2007,07,10,07,53,23.30
2007,07,10,07,54,23.30
2007,07,10,07,55,23.30
2007,07,10,07,56,23.30
2007,07,10,07,57,23.30
2007,07,10,07,58,23.30
2007,07,10,07,59,23.30
2007,07,10,08,00,23.30
2007,07,10,08,01,23.40
2007,07,10,08,02,23.40
2007,07,10,08,03,23.40
2007,07,10,08,04,23.40
2007,07,10,08,05,23.40
2007,07,10,08,06,23.40
2007,07,10,08,07,23.40
2007,07,10,08,08,23.50
2007,07,10,08,09,23.50
2007,07,10,08,10,23.50
2007,07,10,08,11,23.50
2007,07,10,08,12,23.50
2007,07,10,08,13,23.60
2007,07,10,08,14,23.60
2007,07,10,08,15,23.60
2007,07,10,08,16,23.70
2007,07,10,08,17,23.70
2007,07,10,08,18,23.80
2007,07,10,08,19,23.80
2007,07,10,08,20,23.80
2007,07,10,08,21,23.90
2007,07,10,08,22,23.90
2007,07,10,08,23,23.90
2007,07,10,08,24,23.90
2007,07,10,08,25,23.90
2007,07,10,08,26,23.90
2007,07,10,08,27,23.90
2007,07,10,08,28,23.90
2007,07,10,08,29,23.90
2007,07,10,08,30,24.00
2007,07,10,08,31,24.00
2007,07,10,08,32,24.10
2007,07,10,08,33,24.10
2007,07,10,08,34,24.20
2007,07,10,08,35,24.20
2007,07,10,08,36,24.30
2007,07,10,08,37,24.40
2007,07,10,08,38,24.50
2007,07,10,08,39,24.60
2007,07,10,08,40,24.60
2007,07,10,08,41,24.70
2007,07,10,08,42,24.70
2007,07,10,08,43,24.80
2007,07,10,08,44,24.80
2007,07,10,08,45,24.80
2007,07,10,08,46,24.80
2007,07,10,08,47,24.80
2007,07,10,08,48,24.80
2007,07,10,08,49,24.80
2007,07,10,08,50,24.80
2007,07,10,08,51,24.90
2007,07,10,08,52,25.00
2007,07,10,08,53,25.00
2007,07,10,08,54,25.20
2007,07,10,08,55,25.30
2007,07,10,08,56,25.40
2007,07,10,08,57,25.40
2007,07,10,08,58,25.50
2007,07,10,08,59,25.50
2007,07,10,09,00,25.60
2007,07,10,09,01,25.60
2007,07,10,09,02,25.70
2007,07,10,09,03,25.70
2007,07,10,09,04,25.80
2007,07,10,09,05,25.80
2007,07,10,09,06,25.80
2007,07,10,09,07,25.80
2007,07,10,09,08,25.90
2007,07,10,09,09,25.90
2007,07,10,09,10,25.90
2007,07,10,09,11,26.00
2007,07,10,09,12,26.10
2007,07,10,09,13,26.20
2007,07,10,09,14,26.20
2007,07,10,09,15,26.20
2007,07,10,09,16,26.30
2007,07,10,09,17,26.30
2007,07,10,09,18,26.30
2007,07,10,09,19,26.30
2007,07,10,09,20,26.40
2007,07,10,09,21,26.40
2007,07,10,09,22,26.30
2007,07,10,09,23,26.40
2007,07,10,09,24,26.40
2007,07,10,09,25,26.50
2007,07,10,09,26,26.50
2007,07,10,09,27,26.50
2007,07,10,09,28,26.50
2007,07,10,09,29,26.60
2007,07,10,09,30,26.60
2007,07,10,09,31,26.70
2007,07,10,09,32,26.70
2007,07,10,09,33,26.70
2007,07,10,09,34,26.70
2007,07,10,09,35,26.70
2007,07,10,09,36,26.70
2007,07,10,09,37,26.60
2007,07,10,09,38,26.70
2007,07,10,09,39,26.70
2007,07,10,09,40,26.70
2007,07,10,09,41,26.70
2007,07,10,09,42,26.70
2007,07,10,09,43,26.70
2007,07,10,09,44,26.80
2007,07,10,09,45,26.70
2007,07,10,09,46,26.70
2007,07,10,09,47,26.70
2007,07,10,09,48,26.70
2007,07,10,09,49,26.80
2007,07,10,09,50,26.80
2007,07,10,09,51,26.80
2007,07,10,09,52,26.80
2007,07,10,09,53,26.90
2007,07,10,09,54,26.90
2007,07,10,09,55,27.00
2007,07,10,09,56,27.10
2007,07,10,09,57,27.10
2007,07,10,09,58,27.10
2007,07,10,09,59,27.10
2007,07,10,10,00,27.10
2007,07,10,10,01,27.10
2007,07,10,10,02,27.10
2007,07,10,10,03,27.10
2007,07,10,10,04,27.20
2007,07,10,10,05,27.20
2007,07,10,10,06,27.30
2007,07,10,10,07,27.40
2007,07,10,10,08,27.40
2007,07,10,10,09,27.50
2007,07,10,10,10,27.60
2007,07,10,10,11,27.60
2007,07,10,10,12,27.60
2007,07,10,10,13,27.60
2007,07,10,10,14,27.60
2007,07,10,10,15,27.70
2007,07,10,10,16,27.60
2007,07,10,10,17,27.60
2007,07,10,10,18,27.60
2007,07,10,10,19,27.60
2007,07,10,10,20,27.60
2007,07,10,10,21,27.60
2007,07,10,10,22,27.60
2007,07,10,10,23,27.70
2007,07,10,10,24,27.80
2007,07,10,10,25,27.80
2007,07,10,10,26,27.80
2007,07,10,10,27,27.80
2007,07,10,10,28,27.90
2007,07,10,10,29,27.90
2007,07,10,10,30,27.90
2007,07,10,10,31,27.90
2007,07,10,10,32,27.90
2007,07,10,10,33,27.90
2007,07,10,10,34,27.90
2007,07,10,10,35,27.80
2007,07,10,10,36,27.70
2007,07,10,10,37,27.60
2007,07,10,10,38,27.50
2007,07,10,10,39,27.40
2007,07,10,10,40,27.40
2007,07,10,10,41,27.30
2007,07,10,10,42,27.30
2007,07,10,10,43,27.40
2007,07,10,10,44,27.40
2007,07,10,10,45,27.40
2007,07,10,10,46,27.50
2007,07,10,10,47,27.50
2007,07,10,10,48,27.60
2007,07,10,10,49,27.70
2007,07,10,10,50,27.80
2007,07,10,10,51,27.80
2007,07,10,10,52,27.90
2007,07,10,10,53,27.90
2007,07,10,10,54,28.00
2007,07,10,10,55,28.00
2007,07,10,10,56,28.10
2007,07,10,10,57,28.20
2007,07,10,10,58,28.20
2007,07,10,10,59,28.30
2007,07,10,11,00,28.30
2007,07,10,11,01,28.30
2007,07,10,11,02,28.30
2007,07,10,11,03,28.20
2007,07,10,11,04,28.20
2007,07,10,11,05,28.20
2007,07,10,11,06,28.20
2007,07,10,11,07,28.10
2007,07,10,11,08,28.00
2007,07,10,11,09,27.90
2007,07,10,11,10,27.80
2007,07,10,11,11,27.80
2007,07,10,11,12,27.80
2007,07,10,11,13,27.80
2007,07,10,11,14,27.80
2007,07,10,11,15,27.80
2007,07,10,11,16,27.80
2007,07,10,11,17,27.80
2007,07,10,11,18,27.80
2007,07,10,11,19,27.80
2007,07,10,11,20,27.80
2007,07,10,11,21,27.70
2007,07,10,11,22,27.70
2007,07,10,11,23,27.70
2007,07,10,11,24,27.70
2007,07,10,11,25,27.70
2007,07,10,11,26,27.70
2007,07,10,11,27,27.70
2007,07,10,11,28,27.60
2007,07,10,11,29,27.50
2007,07,10,11,30,27.40
2007,07,10,11,31,27.30
2007,07,10,11,32,27.30
2007,07,10,11,33,27.30
2007,07,10,11,34,27.40
2007,07,10,11,35,27.50
2007,07,10,11,36,27.60
2007,07,10,11,37,27.70
2007,07,10,11,38,27.70
2007,07,10,11,39,27.70
2007,07,10,11,40,27.80
2007,07,10,11,41,27.80
2007,07,10,11,42,28.00
2007,07,10,11,43,28.00
2007,07,10,11,44,28.20
2007,07,10,11,45,28.30
2007,07,10,11,46,28.40
2007,07,10,11,47,28.40
2007,07,10,11,48,28.40
2007,07,10,11,49,28.40
2007,07,10,11,50,28.50
2007,07,10,11,51,28.50
2007,07,10,11,52,28.50
2007,07,10,11,53,28.60
2007,07,10,11,54,28.60
2007,07,10,11,55,28.70
2007,07,10,11,56,28.70
2007,07,10,11,57,28.60
2007,07,10,11,58,28.60
2007,07,10,11,59,28.50
2007,07,10,12,00,28.50
2007,07,10,12,01,28.50
2007,07,10,12,02,28.50
2007,07,10,12,03,28.40
2007,07,10,12,04,28.40
2007,07,10,12,05,28.40
2007,07,10,12,06,28.50
2007,07,10,12,07,28.60
2007,07,10,12,08,28.70
2007,07,10,12,09,28.70
2007,07,10,12,10,28.80
2007,07,10,12,11,28.90
2007,07,10,12,12,29.10
2007,07,10,12,13,29.30
2007,07,10,12,14,29.40
2007,07,10,12,15,29.50
2007,07,10,12,16,29.70
2007,07,10,12,17,29.80
2007,07,10,12,18,29.80
2007,07,10,12,19,29.80
2007,07,10,12,20,29.90
2007,07,10,12,21,29.80
2007,07,10,12,22,29.80
2007,07,10,12,23,29.80
2007,07,10,12,24,29.80
2007,07,10,12,25,29.80
2007,07,10,12,26,29.90
2007,07,10,12,27,30.00
2007,07,10,12,28,30.10
2007,07,10,12,29,30.20
2007,07,10,12,30,30.20
2007,07,10,12,31,30.10
2007,07,10,12,32,30.10
2007,07,10,12,33,30.10
2007,07,10,12,34,30.10
2007,07,10,12,35,30.10
2007,07,10,12,36,30.10
2007,07,10,12,37,30.10
2007,07,10,12,38,30.10
2007,07,10,12,39,30.30
2007,07,10,12,40,30.30
2007,07,10,12,41,30.20
2007,07,10,12,42,30.20
2007,07,10,12,43,30.20
2007,07,10,12,44,30.20
2007,07,10,12,45,30.20
2007,07,10,12,46,30.20
2007,07,10,12,47,30.20
2007,07,10,12,48,30.20
2007,07,10,12,49,30.20
2007,07,10,12,50,30.30
2007,07,10,12,51,30.40
2007,07,10,12,52,30.40
2007,07,10,12,53,30.40
2007,07,10,12,54,30.40
2007,07,10,12,55,30.40
2007,07,10,12,56,30.30
2007,07,10,12,57,30.30
2007,07,10,12,58,30.40
2007,07,10,12,59,30.40
2007,07,10,13,00,30.40
2007,07,10,13,01,30.40
2007,07,10,13,02,30.40
2007,07,10,13,03,30.50
2007,07,10,13,04,30.50
2007,07,10,13,05,30.60
2007,07,10,13,06,30.60
2007,07,10,13,07,30.60
2007,07,10,13,08,30.60
2007,07,10,13,09,30.60
2007,07,10,13,10,30.60
2007,07,10,13,11,30.60
2007,07,10,13,12,30.60
2007,07,10,13,13,30.60
2007,07,10,13,14,30.70
2007,07,10,13,15,30.80
2007,07,10,13,16,30.80
2007,07,10,13,17,30.90
2007,07,10,13,18,30.90
2007,07,10,13,19,30.80
2007,07,10,13,20,30.90
2007,07,10,13,21,30.80
2007,07,10,13,22,30.80
2007,07,10,13,23,30.80
2007,07,10,13,24,30.90
2007,07,10,13,25,30.90
2007,07,10,13,26,31.00
2007,07,10,13,27,31.10
2007,07,10,13,28,31.20
2007,07,10,13,29,31.30
2007,07,10,13,30,31.30
2007,07,10,13,31,31.30
2007,07,10,13,32,31.20
2007,07,10,13,33,31.20
2007,07,10,13,34,31.20
2007,07,10,13,35,31.30
2007,07,10,13,36,31.30
2007,07,10,13,37,31.40
2007,07,10,13,38,31.40
2007,07,10,13,39,31.30
2007,07,10,13,40,31.30
2007,07,10,13,41,31.20
2007,07,10,13,42,31.30
2007,07,10,13,43,31.30
2007,07,10,13,44,31.30
2007,07,10,13,45,31.30
2007,07,10,13,46,31.30
2007,07,10,13,47,31.40
2007,07,10,13,48,31.40
2007,07,10,13,49,31.40
2007,07,10,13,50,31.40
2007,07,10,13,51,31.40
2007,07,10,13,52,31.30
2007,07,10,13,53,31.40
2007,07,10,13,54,31.40
2007,07,10,13,55,31.50
2007,07,10,13,56,31.50
2007,07,10,13,57,31.60
2007,07,10,13,58,31.50
2007,07,10,13,59,31.50
2007,07,10,14,00,31.40
2007,07,10,14,01,31.40
2007,07,10,14,02,31.50
2007,07,10,14,03,31.60
2007,07,10,14,04,31.70
2007,07,10,14,05,31.80
2007,07,10,14,06,31.80
2007,07,10,14,07,32.00
2007,07,10,14,08,32.10
2007,07,10,14,09,32.20
2007,07,10,14,10,32.30
2007,07,10,14,11,32.30
2007,07,10,14,12,32.40
2007,07,10,14,13,32.40
2007,07,10,14,14,32.40
2007,07,10,14,15,32.40
2007,07,10,14,16,32.20
2007,07,10,14,17,32.10
2007,07,10,14,18,32.00
2007,07,10,14,19,31.90
2007,07,10,14,20,31.80
2007,07,10,14,21,31.80
2007,07,10,14,22,31.80
2007,07,10,14,23,31.90
2007,07,10,14,24,31.90
2007,07,10,14,25,32.00
2007,07,10,14,26,32.10
2007,07,10,14,27,32.20
2007,07,10,14,28,32.20
2007,07,10,14,29,32.20
2007,07,10,14,30,32.10
2007,07,10,14,31,32.00
2007,07,10,14,32,32.00
2007,07,10,14,33,32.10
2007,07,10,14,34,32.20
2007,07,10,14,35,32.30
2007,07,10,14,36,32.30
2007,07,10,14,37,32.30
2007,07,10,14,38,32.30
2007,07,10,14,39,32.30
2007,07,10,14,40,32.30
2007,07,10,14,41,32.20
2007,07,10,14,42,32.20
2007,07,10,14,43,32.20
2007,07,10,14,44,32.20
2007,07,10,14,45,32.10
2007,07,10,14,46,32.10
2007,07,10,14,47,32.10
2007,07,10,14,48,32.00
2007,07,10,14,49,31.90
2007,07,10,14,50,32.00
2007,07,10,14,51,31.90
2007,07,10,14,52,31.90
2007,07,10,14,53,31.80
2007,07,10,14,54,31.80
2007,07,10,14,55,31.80
2007,07,10,14,56,31.80
2007,07,10,14,57,31.70
2007,07,10,14,58,31.70
2007,07,10,14,59,31.80
2007,07,10,15,00,31.80
2007,07,10,15,01,31.90
2007,07,10,15,02,31.90
2007,07,10,15,03,32.00
2007,07,10,15,04,32.10
2007,07,10,15,05,32.20
2007,07,10,15,06,32.20
2007,07,10,15,07,32.10
2007,07,10,15,08,32.00
2007,07,10,15,09,31.90
2007,07,10,15,10,31.90
2007,07,10,15,11,31.90
2007,07,10,15,12,31.80
2007,07,10,15,13,31.80
2007,07,10,15,14,31.90
2007,07,10,15,15,31.90
2007,07,10,15,16,31.90
2007,07,10,15,17,31.90
2007,07,10,15,18,31.90
2007,07,10,15,19,31.90
2007,07,10,15,20,31.80
2007,07,10,15,21,31.80
2007,07,10,15,22,31.80
2007,07,10,15,23,31.80
2007,07,10,15,24,31.70
2007,07,10,15,25,31.60
2007,07,10,15,26,31.60
2007,07,10,15,27,31.60
2007,07,10,15,28,31.60
2007,07,10,15,29,31.70
2007,07,10,15,30,31.70
2007,07,10,15,31,31.70
2007,07,10,15,32,31.80
2007,07,10,15,33,31.90
2007,07,10,15,34,31.90
2007,07,10,15,35,31.90
2007,07,10,15,36,32.00
2007,07,10,15,37,32.00
2007,07,10,15,38,31.90
2007,07,10,15,39,31.90
2007,07,10,15,40,31.80
2007,07,10,15,41,31.80
2007,07,10,15,42,31.80
2007,07,10,15,43,31.80
2007,07,10,15,44,31.80
2007,07,10,15,45,31.90
2007,07,10,15,46,31.90
2007,07,10,15,47,31.90
2007,07,10,15,48,31.90
2007,07,10,15,49,31.90
2007,07,10,15,50,32.00
2007,07,10,15,51,32.00
2007,07,10,15,52,32.10
2007,07,10,15,53,32.10
2007,07,10,15,54,32.20
2007,07,10,15,55,32.20
2007,07,10,15,56,32.20
2007,07,10,15,57,32.20
2007,07,10,15,58,32.20
2007,07,10,15,59,32.10
2007,07,10,16,00,32.10
2007,07,10,16,01,32.10
2007,07,10,16,02,32.20
2007,07,10,16,03,32.20
2007,07,10,16,04,32.20
2007,07,10,16,05,32.20
2007,07,10,16,06,32.20
2007,07,10,16,07,32.30
2007,07,10,16,08,32.30
2007,07,10,16,09,32.30
2007,07,10,16,10,32.30
2007,07,10,16,11,32.30
2007,07,10,16,12,32.20
2007,07,10,16,13,32.20
2007,07,10,16,14,32.30
2007,07,10,16,15,32.30
2007,07,10,16,16,32.30
2007,07,10,16,17,32.40
2007,07,10,16,18,32.40
2007,07,10,16,19,32.50
2007,07,10,16,20,32.50
2007,07,10,16,21,32.50
2007,07,10,16,22,32.50
2007,07,10,16,23,32.60
2007,07,10,16,24,32.70
2007,07,10,16,25,32.70
2007,07,10,16,26,32.80
2007,07,10,16,27,32.90
2007,07,10,16,28,33.00
2007,07,10,16,29,33.10
2007,07,10,16,30,33.10
2007,07,10,16,31,33.00
2007,07,10,16,32,32.90
2007,07,10,16,33,32.90
2007,07,10,16,34,33.00
2007,07,10,16,35,33.00
2007,07,10,16,36,33.00
2007,07,10,16,37,33.00
2007,07,10,16,38,33.00
2007,07,10,16,39,33.00
2007,07,10,16,40,33.00
2007,07,10,16,41,33.10
2007,07,10,16,42,33.20
2007,07,10,16,43,33.20
2007,07,10,16,44,33.10
2007,07,10,16,45,33.10
2007,07,10,16,46,33.00
2007,07,10,16,47,32.90
2007,07,10,16,48,33.00
2007,07,10,16,49,33.10
2007,07,10,16,50,33.20
2007,07,10,16,51,33.20
2007,07,10,16,52,33.30
2007,07,10,16,53,33.30
2007,07,10,16,54,33.30
2007,07,10,16,55,33.30
2007,07,10,16,56,33.40
2007,07,10,16,57,33.40
2007,07,10,16,58,33.40
2007,07,10,16,59,33.40
2007,07,10,17,00,33.40
2007,07,10,17,01,33.40
2007,07,10,17,02,33.40
2007,07,10,17,03,33.30
2007,07,10,17,04,33.30
2007,07,10,17,05,33.30
2007,07,10,17,06,33.40
2007,07,10,17,07,33.50
2007,07,10,17,08,33.50
2007,07,10,17,09,33.60
2007,07,10,17,10,33.70
2007,07,10,17,11,33.80
2007,07,10,17,12,33.80
2007,07,10,17,13,33.80
2007,07,10,17,14,33.80
2007,07,10,17,15,33.70
2007,07,10,17,16,33.70
2007,07,10,17,17,33.60
2007,07,10,17,18,33.60
2007,07,10,17,19,33.60